Wind_Speed
4 4 4 3 3 4 4 4 4 3 3 2 2 2 2 2 2 2 2 3 3 3 3 3 3 4 4 4 4 4 4 4 4 5 5 5 5 5 5 5 6 6 6
4 4 3 2 3 3 3 4 4 3 3 2 2 2 2 2 2 3 3 3 3 4 4 4 4 5 5 5 5 5 5 5 5 6 6 7 7 6 6 7 7 7 8
3 3 2 2 2 3 3 3 3 3 3 2 2 3 3 3 3 3 4 4 4 4 5 5 5 6 6 6 7 7 7 8 8 8 8 9 9 8 8 9 9 9 10
1 1 1 1 3 3 3 3 3 3 3 3 3 3 3 4 4 4 4 5 5 6 6 7 7 7 7 8 8 9 9 10 10 10 10 11 11 11 11 11 11 12 12
2 1 1 1 2 3 3 3 3 3 3 3 4 4 5 5 4 5 5 6 6 7 7 7 8 9 9 9 10 11 11 11 12 12 12 12 13 13 13 14 14 14 14
2 1 0 0 1 2 3 3 3 3 4 4 5 5 6 5 6 6 7 8 8 8 8 9 9 10 10 11 11 12 12 13 13 14 13 13 14 14 14 15 15 16 16
3 3 2 1 0 2 2 3 3 4 4 4 5 6 6 6 7 7 8 9 9 9 10 11 11 11 12 12 13 13 13 13 14 14 14 14 14 15 15 16 17 17 17
4 4 3 2 1 1 2 3 3 4 5 5 6 6 7 7 7 8 9 9 10 11 11 12 12 13 13 13 14 15 15 15 15 15 14 14 15 15 15 16 17 17 17
4 4 3 3 2 2 3 4 4 5 5 6 6 7 8 8 9 9 9 10 10 10 11 12 13 14 14 15 15 15 15 16 15 15 15 16 16 17 17 18 18 18 19
6 4 4 4 4 4 4 4 5 6 6 7 7 8 9 10 10 11 11 11 11 12 12 13 13 14 15 16 16 16 16 16 16 16 16 17 17 18 18 19 19 20 20
7 6 6 6 5 5 5 5 6 7 7 8 8 9 10 10 11 11 12 13 13 13 13 13 14 15 15 16 17 17 18 17 17 17 18 19 19 19 19 19 20 20 20
9 8 7 7 6 6 6 6 7 8 8 9 9 10 10 11 11 12 13 14 14 15 15 15 15 16 16 16 17 18 18 19 19 19 20 20 20 21 20 20 21 21 21
10 9 8 8 7 7 7 7 8 8 9 10 10 10 11 11 12 12 13 13 14 15 15 15 16 16 17 17 17 17 18 19 19 20 20 20 20 21 22 22 22 22 23
11 11 9 9 9 9 9 9 9 9 10 10 11 11 12 12 13 13 13 13 14 14 15 16 16 17 17 18 18 19 19 20 20 20 20 21 21 21 22 23 23 23 24
13 11 11 11 10 11 11 11 11 11 11 11 12 12 12 13 13 13 14 14 14 15 16 17 18 18 18 19 19 19 19 20 20 20 21 21 22 22 22 23 23 23 24
14 13 13 12 12 13 12 12 11 12 12 12 12 13 13 14 14 14 15 15 15 16 16 18 18 19 20 20 19 20 20 21 21 21 22 22 22 23 23 24 24 25 26
15 14 14 14 14 14 13 13 13 13 13 13 13 14 14 14 15 15 16 17 17 17 18 18 19 19 20 20 20 21 21 21 22 22 23 22 22 23 24 25 26 26 27
15 15 15 15 15 14 13 14 14 14 14 14 15 15 15 15 15 16 17 18 18 18 19 19 19 20 20 21 21 21 22 22 23 24 24 24 24 24 25 26 26 27 27
15 16 16 16 15 14 14 14 14 15 15 15 15 15 16 16 16 17 17 18 18 18 19 19 20 21 21 22 22 22 23 24 24 25 25 25 26 26 27 27 27 28 28
17 17 17 17 16 15 15 15 15 15 15 16 16 16 16 17 17 18 18 18 18 19 20 20 21 22 22 23 23 24 25 25 26 26 26 26 27 27 28 28 29 30 30
17 17 18 18 17 16 16 16 15 16 16 16 16 17 17 17 18 18 19 19 20 20 21 22 23 23 24 24 25 25 26 26 27 27 27 27 28 28 29 29 30 31 31
19 19 19 19 19 18 17 17 17 17 17 17 17 17 17 17 18 20 20 21 21 22 22 23 24 24 24 25 26 26 26 26 27 27 28 28 28 28 29 29 30 31 31
20 21 20 20 20 20 19 19 19 19 19 18 18 19 19 19 20 21 21 22 22 23 23 24 24 24 25 26 26 27 27 27 27 28 28 29 29 29 30 30 31 31 31
22 22 21 21 21 21 21 21 21 21 21 20 20 21 21 21 22 22 23 23 24 24 24 25 25 25 26 26 26 27 27 28 28 28 29 29 30 31 31 31 31 31 31
23 23 23 23 23 23 23 23 22 22 22 22 22 22 22 22 23 23 24 24 25 25 26 26 26 26 26 27 27 28 28 28 29 29 30 31 31 31 31 31 31 31 31
24 24 25 25 24 23 24 24 23 23 22 23 23 22 23 23 24 24 24 25 25 25 26 26 27 27 27 28 28 28 29 29 29 29 30 31 31 31 31 31 30 31 31
Wind_Direction
137 142 145 143 146 147 148 151 155 158 154 160 167 180 185 191 202 207 218 217 222 229 236 251 257 259 265 269 271 275 278 277 280 280 281 288 288 279 275 273 273 272 274
145 147 151 154 168 180 173 168 168 175 175 184 189 206 215 215 226 230 233 232 231 240 249 265 270 271 271 271 273 274 278 279 279 278 277 282 282 275 271 271 272 272 273
147 152 159 185 195 202 194 181 183 186 198 211 218 221 232 239 245 245 246 247 247 250 258 268 275 279 277 272 273 277 278 278 280 278 280 281 279 276 273 270 270 270 272
124 159 166 203 198 198 198 201 205 217 233 239 236 240 252 255 259 260 255 257 261 262 266 269 271 276 277 276 277 280 280 280 281 279 278 277 277 276 274 270 267 267 269
88 144 196 190 205 207 209 221 220 230 238 238 247 254 260 265 267 268 269 271 271 271 272 273 275 277 278 279 280 280 282 283 283 284 280 278 278 277 277 274 270 269 268
59 44 127 192 203 206 217 239 250 249 253 254 257 261 264 269 272 273 275 275 275 276 276 277 282 283 279 278 280 281 281 283 284 286 286 283 284 279 278 276 274 271 271
46 51 46 23 246 239 253 261 259 256 257 260 266 266 269 273 275 277 280 278 276 278 279 279 282 280 279 279 279 281 282 285 286 289 289 287 287 284 280 277 278 274 272
44 41 44 38 21 274 267 281 276 264 264 267 270 270 274 277 277 278 278 279 280 279 279 280 282 281 278 280 280 280 282 283 286 290 290 290 288 286 284 281 279 276 276
33 26 22 12 349 313 286 281 284 283 279 275 276 275 275 279 279 281 281 283 285 284 282 283 284 283 281 281 282 283 285 285 285 288 287 288 289 285 285 283 283 280 277
24 15 360 347 333 315 301 289 284 288 289 285 280 277 276 277 280 283 283 285 285 286 287 288 288 287 286 284 282 284 284 286 285 287 286 287 287 286 285 283 282 281 278
14 3 350 338 329 317 304 294 285 285 287 289 287 283 282 279 278 279 282 285 286 287 288 289 291 291 290 289 286 285 285 287 290 290 287 287 285 288 285 283 282 280 280
2 351 343 336 328 317 303 292 288 284 285 287 287 286 283 283 282 283 284 283 284 285 286 288 290 292 293 292 289 288 287 288 290 289 290 289 285 285 285 285 283 281 281
359 351 344 333 323 316 305 295 289 288 286 283 285 285 285 284 284 284 286 288 285 286 289 288 289 291 292 292 291 290 290 291 291 291 292 292 288 287 286 284 283 282 281
358 354 350 343 327 318 310 300 294 290 290 287 284 285 287 288 285 283 285 289 291 291 292 290 291 293 293 294 292 291 293 294 292 292 290 290 290 288 288 286 283 282 282
357 352 346 342 335 326 318 308 302 296 294 293 288 286 288 289 289 286 286 288 290 290 292 292 292 294 294 296 296 295 295 295 295 294 292 289 288 288 288 288 286 283 283
356 351 345 339 332 327 322 314 308 301 297 293 291 290 289 286 286 286 288 289 291 291 291 291 292 293 293 294 295 296 298 297 297 296 294 292 290 289 289 288 286 285 284
351 349 344 338 332 328 321 314 308 303 299 297 295 294 294 290 287 287 288 290 290 290 291 292 293 293 294 294 294 294 294 296 297 297 297 296 293 292 292 289 287 287 287
346 345 340 335 332 328 322 316 311 307 304 301 300 296 295 295 291 291 292 292 292 291 291 292 293 295 295 295 294 293 294 294 294 295 296 295 293 293 293 291 289 289 288
339 339 339 336 332 329 325 319 313 310 306 303 301 299 297 296 295 294 294 293 293 293 293 293 294 295 296 295 295 294 294 294 294 293 294 294 293 293 293 292 292 290 289
334 334 336 333 328 325 324 320 316 310 308 306 302 300 298 296 295 295 294 293 293 293 293 294 294 295 296 296 296 295 296 296 296 296 295 294 294 295 294 293 293 292 291
336 335 334 333 329 325 323 321 317 312 309 306 303 302 300 297 296 295 294 293 292 292 293 293 294 294 294 295 295 295 295 296 297 297 296 295 295 296 295 294 293 292 292
331 332 331 330 328 325 321 320 317 314 310 307 304 302 300 298 297 296 295 294 293 294 293 294 295 295 294 294 295 295 295 295 296 296 296 296 296 296 295 295 294 293 292
325 325 325 326 326 324 320 316 315 313 311 307 304 301 299 298 297 297 296 296 296 295 295 295 296 294 295 295 294 295 294 294 294 295 295 295 295 295 295 294 295 295 294
319 320 320 321 320 320 319 315 312 311 309 307 305 301 298 297 297 296 296 296 296 297 296 296 295 294 294 295 294 294 294 294 294 294 294 295 296 296 296 295 294 294 294
317 316 316 317 316 315 316 313 308 307 307 306 305 303 300 298 298 298 297 296 295 296 296 296 296 295 294 295 295 295 295 295 295 295 296 296 296 296 296 295 295 294 294
313 314 313 313 315 315 315 315 311 307 306 305 304 303 302 299 299 298 297 298 297 297 297 296 295 295 295 296 297 296 296 296 296 296 297 297 297 297 297 296 296 296 295
Height
5891 5892 5892 5893 5893 5893 5894 5894 5895 5895 5896 5896 5896 5897 5897 5897 5897 5897 5897 5897 5897 5897 5897 5897 5897 5897 5897 5897 5896 5896 5896 5895 5895 5895 5895 5895 5894 5894 5893 5893 5893 5893 5893
5892 5892 5893 5893 5893 5894 5894 5895 5895 5895 5896 5896 5896 5896 5896 5897 5897 5897 5897 5897 5897 5897 5897 5897 5897 5896 5896 5896 5895 5895 5894 5894 5894 5894 5894 5893 5893 5892 5892 5892 5891 5891 5891
5893 5893 5893 5893 5894 5894 5894 5895 5895 5895 5896 5896 5896 5896 5896 5896 5896 5896 5896 5896 5896 5896 5896 5896 5895 5895 5895 5894 5894 5894 5893 5893 5893 5892 5892 5891 5891 5890 5890 5890 5889 5889 5888
5893 5893 5894 5894 5894 5894 5894 5895 5895 5895 5896 5895 5896 5896 5896 5896 5895 5895 5895 5895 5895 5895 5895 5894 5894 5894 5893 5893 5892 5892 5891 5891 5891 5890 5890 5889 5889 5888 5888 5887 5887 5886 5886
5893 5893 5893 5893 5893 5894 5894 5895 5895 5895 5895 5895 5895 5895 5895 5895 5895 5895 5895 5894 5894 5894 5893 5893 5892 5892 5891 5891 5890 5890 5889 5889 5888 5888 5887 5886 5886 5885 5885 5884 5884 5883 5883
5894 5893 5893 5893 5893 5894 5894 5895 5895 5894 5894 5894 5894 5894 5894 5894 5894 5893 5893 5893 5892 5892 5892 5891 5891 5890 5889 5889 5888 5888 5887 5886 5886 5885 5884 5883 5883 5882 5881 5881 5880 5879 5879
5894 5894 5894 5894 5894 5894 5894 5894 5894 5893 5893 5893 5894 5893 5893 5893 5892 5892 5891 5891 5890 5890 5890 5889 5888 5887 5887 5886 5885 5885 5884 5884 5883 5882 5881 5880 5879 5878 5877 5877 5876 5875 5875
5895 5894 5894 5894 5893 5893 5893 5893 5893 5892 5892 5892 5892 5892 5891 5892 5890 5890 5890 5889 5888 5888 5887 5886 5885 5884 5883 5883 5882 5882 5881 5881 5880 5879 5878 5876 5875 5874 5873 5872 5872 5871 5870
5895 5895 5894 5893 5893 5893 5892 5892 5891 5891 5891 5890 5890 5890 5890 5889 5888 5888 5887 5887 5886 5885 5885 5884 5882 5881 5880 5879 5879 5878 5878 5877 5876 5875 5874 5872 5871 5870 5869 5868 5867 5866 5866
5896 5895 5894 5893 5893 5892 5891 5891 5890 5890 5889 5889 5888 5888 5887 5887 5886 5886 5885 5884 5883 5883 5882 5881 5879 5878 5877 5876 5875 5875 5874 5873 5872 5871 5869 5868 5867 5866 5865 5864 5863 5861 5860
5896 5895 5893 5892 5891 5891 5890 5889 5889 5888 5887 5887 5886 5885 5885 5884 5883 5883 5882 5881 5880 5880 5879 5878 5876 5875 5874 5873 5872 5871 5870 5869 5868 5866 5865 5864 5863 5861 5860 5859 5858 5856 5855
5895 5894 5892 5891 5890 5889 5888 5887 5886 5886 5885 5884 5883 5883 5882 5881 5880 5880 5879 5878 5877 5876 5875 5874 5873 5871 5870 5869 5868 5866 5866 5865 5863 5862 5860 5859 5857 5856 5855 5854 5852 5851 5850
5895 5893 5891 5890 5888 5887 5886 5885 5884 5884 5883 5882 5881 5880 5879 5878 5877 5876 5875 5874 5873 5872 5871 5870 5869 5868 5866 5865 5864 5862 5861 5860 5858 5857 5855 5854 5852 5851 5849 5848 5847 5845 5844
5894 5892 5890 5888 5887 5886 5884 5883 5882 5881 5880 5880 5879 5878 5877 5875 5874 5873 5873 5872 5870 5869 5868 5866 5865 5864 5862 5861 5859 5858 5856 5855 5853 5852 5850 5849 5847 5846 5844 5842 5841 5839 5838
5893 5891 5889 5887 5886 5884 5883 5881 5880 5879 5878 5877 5876 5875 5873 5872 5871 5870 5869 5868 5867 5866 5865 5863 5861 5860 5858 5856 5855 5853 5851 5850 5848 5847 5845 5843 5842 5840 5838 5836 5835 5833 5832
5893 5890 5888 5886 5884 5882 5881 5879 5878 5876 5875 5874 5872 5871 5870 5869 5868 5867 5866 5864 5863 5862 5861 5859 5857 5856 5854 5852 5850 5848 5847 5845 5843 5841 5839 5837 5836 5834 5832 5830 5828 5827 5825
5892 5889 5887 5884 5882 5880 5878 5876 5875 5873 5872 5870 5869 5868 5866 5865 5864 5863 5861 5860 5859 5858 5856 5855 5853 5851 5849 5847 5845 5844 5842 5840 5838 5836 5834 5832 5830 5828 5826 5824 5822 5820 5818
5890 5887 5885 5882 5880 5878 5875 5874 5872 5870 5868 5867 5865 5864 5863 5861 5860 5859 5857 5856 5854 5853 5851 5850 5848 5846 5844 5842 5840 5839 5837 5835 5833 5830 5828 5826 5824 5822 5819 5817 5815 5813 5811
5888 5885 5882 5880 5877 5875 5872 5870 5869 5867 5865 5863 5862 5860 5859 5858 5856 5855 5853 5851 5850 5848 5847 5845 5843 5841 5839 5837 5835 5833 5831 5829 5827 5824 5822 5819 5817 5815 5812 5810 5808 5806 5803
5886 5883 5880 5878 5875 5872 5870 5868 5866 5864 5862 5860 5858 5856 5855 5853 5852 5850 5848 5847 5845 5843 5842 5840 5838 5836 5834 5832 5830 5828 5825 5823 5820 5817 5815 5812 5810 5807 5805 5803 5800 5798 5795
5884 5881 5878 5876 5873 5870 5867 5865 5863 5860 5858 5856 5855 5853 5851 5849 5847 5845 5844 5842 5840 5838 5836 5834 5832 5830 5828 5826 5824 5821 5819 5816 5813 5811 5808 5805 5803 5800 5798 5795 5792 5790 5787
5882 5879 5876 5873 5870 5867 5864 5862 5859 5857 5854 5852 5850 5848 5846 5844 5843 5841 5839 5837 5835 5833 5831 5829 5826 5824 5822 5819 5817 5814 5812 5809 5807 5804 5801 5798 5795 5793 5790 5787 5784 5782 5779
5879 5876 5873 5870 5867 5864 5861 5858 5856 5853 5850 5848 5846 5844 5842 5840 5838 5836 5833 5831 5829 5827 5825 5822 5820 5817 5815 5813 5810 5807 5805 5802 5799 5797 5794 5791 5788 5785 5782 5779 5776 5773 5770
5876 5873 5869 5866 5863 5860 5857 5854 5851 5848 5845 5843 5841 5838 5836 5834 5832 5829 5827 5825 5823 5820 5818 5815 5813 5811 5808 5806 5803 5800 5797 5795 5792 5789 5786 5783 5780 5777 5773 5770 5768 5765 5762
5872 5868 5865 5862 5859 5856 5852 5848 5845 5842 5840 5837 5835 5832 5830 5828 5825 5823 5821 5818 5816 5814 5811 5809 5806 5804 5801 5798 5796 5793 5790 5787 5784 5781 5778 5775 5772 5768 5765 5762 5759 5756 5753
5867 5864 5861 5858 5854 5851 5847 5842 5838 5836 5834 5831 5829 5826 5824 5821 5819 5816 5814 5812 5809 5806 5804 5802 5799 5797 5794 5791 5788 5785 5782 5779 5776 5773 5770 5767 5763 5760 5757 5753 5750 5747 5744